User: anonymous   Login
Location: L�tisburg
(47.3947°N, 9.0820°E)
Time: 01:50:51
(UTC+00:00)
Language:

Cosmos 2154 Rocket - Orbit

View from above orbital plane
View from above orbital plane
View from above satellite
View from above satellite

Ground track
Ground track

The orbit data is extracted from the following two-line orbital elements,

1 21667U 91059B   21136.24216662  .00000021  00000-0  58926-5 0  9996
2 21667  82.9093  24.9193 0019755 228.1334 248.5686 13.75105435491820
Epoch (UTC): 16 May 2021 05:48:43
Eccentricity: 0.0019755
inclination: 82.9093°
perigee height: 967 km
apogee height: 996 km
right ascension of ascending node: 24.9193°
argument of perigee: 228.1334°
revolutions per day: 13.75105435
mean anomaly at epoch: 248.5686°
orbit number at epoch: 49182

The dashed part of the orbit path shows where the satellite is in the earth's shadow,  

DLR